CORIOLIS

Last updated on Sat Sep 19 2026 00:03:35 GMT+0000 (Coordinated Universal Time)

1 27640U 03001A 26260.64647616 .00000045 00000+0 41678-4 0 9997 2 27640 98.7171 266.1370 0013115 309.9216 50.0807 14.19966811227344
UTC large
Height (km)
Speed (km/s)
/
Latitude / Longitude
Inclination (degrees)
Orbital Period (minutes)
Azimuth
Elevation
Range (km)
Doppler Factor

Next 0 passes for location: London (51.5072 / 0.1276)

No passes found over London.
CORIOLIS